Powrót do katalogu

CZ-6A DEB

AktywnyPO
NORAD 60877·DEBRIS·🇨🇳 China

Wystrzelony Aug 6, 2024 z Taiyuan Satellite Launch Center

Loading…

Następne Przeloty (najbliższe 24 godziny)

TLE

ŚwieżeSource: Space-Track

Epoka: Sep 14, 2026, 07:40 UTC

1 60877U 24140KG  26257.31985904  .00000166  00000-0  10478-3 0  9996
2 60877  89.0676 274.8327 0179686  23.1694 337.7453 13.91981231105580

Śledź CZ-6A DEB w czasie rzeczywistym z AllMySat

Download on the App Store